When you browse on this site, cookies collect data to enhance your experience and personalize the content and advertising you see.
Visit our Privacy Policy to learn more. By continuing to use the site, you agree to this use of cookies and data.
  • în România
  • Lista ţărilor
  • Pe 7 zile
  • Temperatura apei
  • Meteo pe hartă
  • Widget-uri
  • user-avatar
    Intrare

    Meteo pe oră la Fakuoka

    Astăzi, 21 Ianuarie, Marţi

    Timp Temperatura Precipitaţii Vânt Presiune Umiditate
    00:00 +5°C° 0 mm 2 m/s 746 mmHg 66%
    01:00 +5°C° 0 mm 2 m/s 746 mmHg 68%
    02:00 +5°C° 0 mm 2 m/s 746 mmHg 69%
    03:00 +5°C° 0 mm 2 m/s 746 mmHg 70%
    04:00 +4°C° 0 mm 2 m/s 747 mmHg 69%
    05:00 +4°C° 0 mm 2 m/s 747 mmHg 68%
    06:00 +4°C° 0 mm 2 m/s 747 mmHg 67%
    07:00 +5°C° 0 mm 2 m/s 748 mmHg 63%
    08:00 +6°C° 0 mm 1 m/s 748 mmHg 59%
    09:00 +7°C° 0 mm 1 m/s 749 mmHg 56%
    10:00 +7°C° 0 mm 2 m/s 749 mmHg 51%
    11:00 +8°C° 0 mm 2 m/s 749 mmHg 46%
    12:00 +9°C° 0 mm 2 m/s 749 mmHg 41%
    13:00 +9°C° 0 mm 3 m/s 749 mmHg 40%
    14:00 +10°C° 0 mm 3 m/s 749 mmHg 39%
    15:00 +10°C° 0 mm 3 m/s 748 mmHg 38%
    16:00 +9°C° 0 mm 2 m/s 748 mmHg 43%
    17:00 +8°C° 0 mm 2 m/s 749 mmHg 47%
    18:00 +7°C° 0 mm 2 m/s 749 mmHg 52%
    19:00 +7°C° 0 mm 2 m/s 749 mmHg 54%
    20:00 +7°C° 0 mm 1 m/s 749 mmHg 57%
    21:00 +7°C° 0 mm 1 m/s 750 mmHg 59%
    22:00 +7°C° 0 mm 1 m/s 749 mmHg 59%
    23:00 +6°C° 0 mm 1 m/s 749 mmHg 59%

    Mâine, 22 Ianuarie, Miercuri

    Timp Temperatura Precipitaţii Vânt Presiune Umiditate
    00:00 +6°C° 0 mm 1 m/s 749 mmHg 59%
    01:00 +6°C° 0 mm 1 m/s 749 mmHg 59%
    02:00 +6°C° 0 mm 1 m/s 749 mmHg 58%
    03:00 +6°C° 0 mm 1 m/s 749 mmHg 57%
    04:00 +6°C° 0 mm 1 m/s 748 mmHg 58%
    05:00 +6°C° 0 mm 1 m/s 748 mmHg 58%
    06:00 +6°C° 0 mm 1 m/s 748 mmHg 58%
    07:00 +7°C° 0 mm 1 m/s 748 mmHg 59%
    08:00 +7°C° 0 mm 1 m/s 748 mmHg 60%
    09:00 +8°C° 0 mm 1 m/s 749 mmHg 60%
    10:00 +7°C° 0 mm 0 m/s 748 mmHg 61%
    11:00 +8°C° 0 mm 0 m/s 748 mmHg 62%
    12:00 +8°C° 0 mm 0 m/s 748 mmHg 63%
    13:00 +9°C° 0.1 mm 1 m/s 748 mmHg 66%
    14:00 +9°C° 0.1 mm 1 m/s 747 mmHg 69%
    15:00 +9°C° 0.1 mm 1 m/s 746 mmHg 71%
    16:00 +9°C° 0.5 mm 1 m/s 746 mmHg 77%
    17:00 +9°C° 0.5 mm 1 m/s 746 mmHg 82%
    18:00 +8°C° 0.5 mm 1 m/s 746 mmHg 87%
    19:00 +9°C° 0.4 mm 1 m/s 746 mmHg 88%
    20:00 +9°C° 0.4 mm 1 m/s 746 mmHg 89%
    21:00 +8°C° 0.4 mm 2 m/s 746 mmHg 90%
    22:00 +8°C° 1.4 mm 2 m/s 746 mmHg 91%
    23:00 +8°C° 1.4 mm 2 m/s 745 mmHg 92%

    Poimâine, 23 Ianuarie, Joi

    Timp Temperatura Precipitaţii Vânt Presiune Umiditate
    00:00 +8°C° 1.4 mm 2 m/s 745 mmHg 93%
    01:00 +9°C° 1.5 mm 2 m/s 744 mmHg 93%
    02:00 +9°C° 1.5 mm 3 m/s 744 mmHg 94%
    03:00 +9°C° 1.5 mm 3 m/s 743 mmHg 94%
    04:00 +10°C° 2.6 mm 3 m/s 743 mmHg 95%
    05:00 +10°C° 2.6 mm 2 m/s 742 mmHg 96%
    06:00 +12°C° 2.6 mm 1 m/s 742 mmHg 97%
    07:00 +12°C° 2.6 mm 2 m/s 742 mmHg 97%
    08:00 +13°C° 2.6 mm 2 m/s 743 mmHg 97%
    09:00 +13°C° 2.6 mm 2 m/s 743 mmHg 97%
    10:00 +14°C° 0 mm 2 m/s 743 mmHg 92%
    11:00 +15°C° 0 mm 2 m/s 743 mmHg 88%
    12:00 +16°C° 0 mm 2 m/s 743 mmHg 84%
    13:00 +16°C° 0 mm 2 m/s 743 mmHg 84%
    14:00 +15°C° 0 mm 1 m/s 743 mmHg 84%
    15:00 +15°C° 0 mm 1 m/s 743 mmHg 84%
    16:00 +15°C° 0.6 mm 1 m/s 743 mmHg 87%
    17:00 +14°C° 0.6 mm 1 m/s 743 mmHg 91%
    18:00 +13°C° 0.6 mm 1 m/s 744 mmHg 95%
    19:00 +13°C° 0.6 mm 1 m/s 744 mmHg 95%
    20:00 +13°C° 0.6 mm 1 m/s 744 mmHg 96%
    21:00 +13°C° 0.6 mm 1 m/s 744 mmHg 96%
    22:00 +13°C° 0.6 mm 1 m/s 744 mmHg 96%
    23:00 +13°C° 0.6 mm 1 m/s 745 mmHg 96%

    24 Ianuarie, Vineri

    Timp Temperatura Precipitaţii Vânt Presiune Umiditate
    00:00 +13°C° 0.6 mm 1 m/s 745 mmHg 96%
    01:00 +12°C° 1.1 mm 1 m/s 745 mmHg 96%
    02:00 +12°C° 1.1 mm 1 m/s 745 mmHg 96%
    03:00 +12°C° 1.1 mm 1 m/s 745 mmHg 96%
    04:00 +12°C° 1.2 mm 1 m/s 745 mmHg 96%
    05:00 +12°C° 1.2 mm 1 m/s 745 mmHg 95%
    06:00 +12°C° 1.2 mm 1 m/s 746 mmHg 95%
    07:00 +12°C° 0.1 mm 2 m/s 746 mmHg 92%
    08:00 +12°C° 0.1 mm 2 m/s 746 mmHg 89%
    09:00 +11°C° 0.1 mm 3 m/s 746 mmHg 86%
    10:00 +11°C° 0 mm 3 m/s 747 mmHg 81%
    11:00 +12°C° 0 mm 4 m/s 747 mmHg 76%
    12:00 +12°C° 0 mm 4 m/s 747 mmHg 72%
    13:00 +12°C° 0 mm 4 m/s 747 mmHg 69%
    14:00 +12°C° 0 mm 4 m/s 746 mmHg 66%
    15:00 +13°C° 0 mm 4 m/s 746 mmHg 64%
    16:00 +12°C° 0 mm 4 m/s 746 mmHg 65%
    17:00 +11°C° 0 mm 4 m/s 747 mmHg 66%
    18:00 +10°C° 0 mm 4 m/s 747 mmHg 67%
    19:00 +10°C° 0 mm 3 m/s 747 mmHg 68%
    20:00 +10°C° 0 mm 3 m/s 747 mmHg 68%
    21:00 +10°C° 0 mm 3 m/s 747 mmHg 69%
    22:00 +9°C° 0.1 mm 2 m/s 747 mmHg 70%
    23:00 +10°C° 0.1 mm 1 m/s 748 mmHg 70%

    25 Ianuarie, Sâmbătă

    Timp Temperatura Precipitaţii Vânt Presiune Umiditate
    00:00 +10°C° 0.1 mm 1 m/s 748 mmHg 71%
    01:00 +10°C° 0.6 mm 1 m/s 748 mmHg 75%
    02:00 +8°C° 0.6 mm 2 m/s 747 mmHg 79%
    03:00 +8°C° 0.6 mm 2 m/s 747 mmHg 82%
    04:00 +8°C° 0.2 mm 2 m/s 747 mmHg 83%
    05:00 +8°C° 0.2 mm 2 m/s 747 mmHg 84%
    06:00 +8°C° 0.2 mm 2 m/s 747 mmHg 84%
    07:00 +8°C° 0.7 mm 2 m/s 747 mmHg 85%
    08:00 +8°C° 0.7 mm 2 m/s 747 mmHg 85%
    09:00 +7°C° 0.7 mm 2 m/s 748 mmHg 86%
    10:00 +7°C° 0.7 mm 2 m/s 747 mmHg 86%
    11:00 +7°C° 0.7 mm 2 m/s 747 mmHg 86%
    12:00 +7°C° 0.7 mm 2 m/s 747 mmHg 86%
    13:00 +7°C° 1 mm 2 m/s 747 mmHg 87%
    14:00 +7°C° 1 mm 2 m/s 747 mmHg 88%
    15:00 +7°C° 1 mm 2 m/s 746 mmHg 88%
    16:00 +7°C° 0.4 mm 2 m/s 746 mmHg 87%
    17:00 +7°C° 0.4 mm 2 m/s 746 mmHg 86%
    18:00 +7°C° 0.4 mm 2 m/s 746 mmHg 85%
    19:00 +7°C° 0.1 mm 2 m/s 746 mmHg 84%
    20:00 +7°C° 0.1 mm 2 m/s 746 mmHg 83%
    21:00 +7°C° 0.1 mm 2 m/s 746 mmHg 81%
    22:00 +7°C° 0.3 mm 2 m/s 746 mmHg 82%
    23:00 +7°C° 0.3 mm 2 m/s 746 mmHg 83%

    26 Ianuarie, Duminică

    Timp Temperatura Precipitaţii Vânt Presiune Umiditate
    00:00 +7°C° 0.3 mm 2 m/s 746 mmHg 84%
    01:00 +7°C° 0.1 mm 2 m/s 745 mmHg 84%
    02:00 +7°C° 0.1 mm 2 m/s 745 mmHg 84%
    03:00 +7°C° 0.1 mm 2 m/s 745 mmHg 84%
    04:00 +7°C° 0 mm 2 m/s 744 mmHg 83%
    05:00 +7°C° 0 mm 2 m/s 744 mmHg 83%
    06:00 +7°C° 0 mm 2 m/s 744 mmHg 82%
    07:00 +7°C° 0.1 mm 2 m/s 744 mmHg 82%
    08:00 +7°C° 0.1 mm 3 m/s 744 mmHg 82%
    09:00 +7°C° 0.1 mm 3 m/s 744 mmHg 81%
    10:00 +7°C° 0.8 mm 3 m/s 744 mmHg 81%
    11:00 +7°C° 0.8 mm 3 m/s 744 mmHg 81%
    12:00 +8°C° 0.8 mm 3 m/s 744 mmHg 81%
    13:00 +8°C° 0.9 mm 3 m/s 744 mmHg 79%
    14:00 +8°C° 0.9 mm 3 m/s 743 mmHg 77%
    15:00 +8°C° 0.9 mm 3 m/s 743 mmHg 75%
    16:00 +7°C° 0.1 mm 3 m/s 743 mmHg 75%
    17:00 +6°C° 0.1 mm 4 m/s 743 mmHg 75%
    18:00 +6°C° 0.1 mm 4 m/s 743 mmHg 74%
    19:00 +6°C° 0 mm 4 m/s 743 mmHg 74%
    20:00 +6°C° 0 mm 4 m/s 743 mmHg 74%
    21:00 +6°C° 0 mm 4 m/s 743 mmHg 73%
    22:00 +6°C° 0 mm 4 m/s 743 mmHg 73%
    23:00 +6°C° 0 mm 4 m/s 742 mmHg 73%
    Arată mai mult